www.pogodaiklimat.ru

Погода и климат >> Архив погоды >> Япония >> Минамитори


ПОГОДА на Минамитори

  • Прогноз погоды на Минамитори
  • Монитор погоды на Минамитори

АРХИВ ПОГОДЫ на Минамитори

Время (UTC), дата Ветер
(напр.,м/с)
 
Видим.   Явления Облачность Т
(С)
Тd
(С)
f
(%)
Тe
(С)
Тes
(С)
Комфортность P
(гПа)
Po
(гПа)
Тmin
(С)
Tmax
(С)
R
(мм)
R24
(мм)
S
(см)
10 10.08 Ю 3 н/о н/о +26.7 +24.2 86 +37 +37 очень
душно
1012.8 1011.8
11 10.08 ЮВ 4 н/о н/о +27.1 +25.3 90 +39 +39 очень
душно
1013.0 1012.0
12 10.08 Ю 6 н/о н/о +25.0 +24.2 95 +34 +34 очень
душно
1013.8 1012.8 +30.7 8
13 10.08 В 3 н/о н/о +25.5 +23.9 91 +35 +35 очень
душно
1013.3 1012.3
14 10.08 В 2 н/о н/о +26.3 +24.7 91 +37 +37 очень
душно
1012.5 1011.5
15 10.08 ЮВ 5 н/о н/о +26.4 +24.6 90 +37 +37 очень
душно
1012.1 1011.1
16 10.08 ЮВ 4 н/о н/о +26.6 +24.6 89 +38 +38 очень
душно
1011.7 1010.7
17 10.08 ЮВ 4 н/о н/о +27.1 +24.8 87 +39 +39 очень
душно
1011.5 1010.5
18 10.08 ЮВ 5 н/о н/о +27.5 +23.7 80 +38 +38 очень
душно
1011.5 1010.5 3
19 10.08 ЮВ 6 н/о н/о +27.6 +24.9 85 +39 +39 очень
душно
1012.0 1011.0
20 10.08 ЮВ 5 н/о н/о +27.8 +25.1 85 +40 +40 очень
душно
1012.1 1011.1
21 10.08 ЮВ 6 н/о н/о +28.7 +25.7 84 +43 +43 опасность
перегрева
1012.7 1011.7
22 10.08 ЮВ 6 н/о н/о +29.4 +25.8 81 +44 +44 опасность
перегрева
1012.7 1011.7
23 10.08 ЮВ 7 н/о н/о +30.0 +26.0 79 +45 +45 опасность
перегрева
1013.0 1012.0
00 11.08 ЮВ 7 н/о н/о +30.3 +25.4 75 +44 +44 опасность
перегрева
1013.1 1012.1 +25.0 3
01 11.08 ЮВ 8 н/о н/о +30.7 +26.2 77 +46 +46 опасность
перегрева
1013.0 1012.0
02 11.08 ЮВ 5 н/о н/о +30.1 +25.0 74 +43 +43 опасность
перегрева
1012.7 1011.7
03 11.08 ЮВ 8 н/о н/о +29.2 +24.8 77 +42 +42 опасность
перегрева
1012.2 1011.2
04 11.08 ЮВ 5 н/о н/о +29.6 +24.5 74 +42 +42 опасность
перегрева
1011.3 1010.3
05 11.08 ЮВ 6 н/о н/о +29.9 +24.8 74 +43 +43 опасность
перегрева
1011.1 1010.1
06 11.08 ЮВ 7 н/о н/о +29.8 +24.7 74 +42 +42 опасность
перегрева
1010.8 1009.8 0.0
07 11.08 ЮВ 7 н/о н/о +29.2 +25.8 82 +44 +44 опасность
перегрева
1011.0 1010.0
08 11.08 ЮВ 7 н/о н/о +28.8 +26.0 85 +43 +43 опасность
перегрева
1011.3 1010.3
09 11.08 ЮВ 7 н/о н/о +28.7 +26.1 86 +43 +43 опасность
перегрева
1012.2 1011.2
10 11.08 ЮВ 7 н/о н/о +28.7 +25.9 85 +43 +43 опасность
перегрева
1012.9 1011.9
11 11.08 ЮВ 8 н/о н/о +28.7 +25.9 85 +43 +43 опасность
перегрева
1013.4 1012.4
12 11.08 ЮВ 7 н/о н/о +28.6 +26.0 86 +43 +43 опасность
перегрева
1013.8 1012.8 +31.2 0.0
13 11.08 Ю 6 н/о н/о +26.2 +25.3 95 +38 +38 очень
душно
1014.1 1013.1
14 11.08 Ю 3 н/о н/о +25.5 +25.2 98 +37 +37 очень
душно
1013.9 1012.9
15 11.08 Ю 6 н/о н/о +25.2 +24.9 98 +36 +36 очень
душно
1013.7 1012.7
16 11.08 Ю 3 н/о н/о +25.7 +25.2 97 +37 +37 очень
душно
1012.8 1011.8
17 11.08 Ю 4 н/о н/о +26.0 +24.2 90 +36 +36 очень
душно
1012.4 1011.4
18 11.08 ЮВ 5 н/о н/о +26.6 +24.6 89 +38 +38 очень
душно
1012.3 1011.3 24
19 11.08 ЮВ 5 н/о н/о +27.0 +25.4 91 +39 +39 очень
душно
1012.6 1011.6
20 11.08 ЮВ 4 н/о н/о +27.2 +25.8 92 +40 +40 очень
душно
1013.2 1012.2
21 11.08 Ю 4 н/о н/о +27.7 +25.7 89 +41 +41 опасность
перегрева
1013.9 1012.9
22 11.08 Ю 4 н/о н/о +28.0 +25.6 87 +41 +41 опасность
перегрева
1014.4 1013.4
23 11.08 Ю 3 н/о н/о +29.4 +26.4 84 +45 +45 опасность
перегрева
1014.1 1013.1
00 12.08 Ю 5 н/о н/о +30.1 +26.1 79 +45 +45 опасность
перегрева
1014.4 1013.4 +24.2 24
01 12.08 Ю 3 н/о н/о +29.2 +25.8 82 +44 +44 опасность
перегрева
1014.3 1013.3
02 12.08 ЮВ 3 н/о н/о +29.3 +25.1 78 +42 +42 опасность
перегрева
1014.2 1013.2
03 12.08 ЮВ 3 н/о н/о +29.5 +25.7 80 +44 +44 опасность
перегрева
1013.6 1012.6
04 12.08 ЮВ 4 н/о н/о +29.9 +25.9 79 +45 +45 опасность
перегрева
1013.4 1012.4
05 12.08 ЮВ 4 н/о н/о +29.2 +25.6 81 +43 +43 опасность
перегрева
1013.3 1012.3
06 12.08 ЮВ 5 н/о н/о +28.8 +24.8 79 +41 +41 опасность
перегрева
1013.4 1012.4
07 12.08 ЮВ 4 н/о н/о +28.4 +24.8 81 +41 +41 опасность
перегрева
1013.8 1012.8
08 12.08 ЮВ 4 н/о н/о +28.2 +25.2 84 +41 +41 опасность
перегрева
1014.2 1013.2
09 12.08 ЮВ 4 н/о н/о +28.1 +25.7 87 +42 +42 опасность
перегрева
1014.7 1013.7
10 12.08 ЮВ 4 н/о н/о +28.2 +26.2 89 +43 +43 опасность
перегрева
1015.4 1014.4
11 12.08 Ю 4 н/о н/о +28.2 +26.4 90 +43 +43 опасность
перегрева
1015.8 1014.8
12 12.08 ЮВ 4 н/о н/о +28.2 +26.6 91 +44 +44 опасность
перегрева
1015.8 1014.8 +30.2
13 12.08 ЮВ 4 н/о н/о +28.1 +26.7 92 +44 +44 опасность
перегрева
1015.7 1014.7
14 12.08 ЮВ 4 н/о н/о +28.1 +26.7 92 +44 +44 опасность
перегрева
1015.7 1014.7
15 12.08 ЮВ 3 н/о н/о +27.6 +26.4 93 +42 +42 опасность
перегрева
1015.3 1014.3
16 12.08 Ю 3 н/о н/о +27.2 +25.8 92 +40 +40 очень
душно
1015.0 1014.0
17 12.08 ЮЗ 2 н/о н/о +27.0 +25.8 93 +40 +40 очень
душно
1014.8 1013.8
18 12.08 З 1 н/о н/о +27.1 +26.4 96 +41 +41 опасность
перегрева
1014.9 1013.9
19 12.08 СЗ 4 н/о н/о +26.7 +24.7 89 +38 +38 очень
душно
1015.0 1014.0
20 12.08 С 2 н/о н/о +27.3 +25.1 88 +39 +39 очень
душно
1015.1 1014.1
21 12.08 СВ 2 н/о н/о +28.4 +24.2 78 +40 +40 очень
душно
1015.3 1014.3
22 12.08 СВ 2 н/о н/о +29.0 +24.6 77 +41 +41 опасность
перегрева
1015.7 1014.7
23 12.08 В 2 н/о н/о +29.6 +24.7 75 +42 +42 опасность
перегрева
1015.6 1014.6
00 13.08 В 4 н/о н/о +30.1 +25.4 76 +44 +44 опасность
перегрева
1015.5 1014.5 +26.4
01 13.08 В 4 н/о н/о +30.7 +25.5 74 +45 +45 опасность
перегрева
1015.1 1014.1
02 13.08 В 3 н/о н/о +30.7 +25.5 74 +45 +45 опасность
перегрева
1014.8 1013.8
03 13.08 В 3 н/о н/о +30.6 +25.7 75 +45 +45 опасность
перегрева
1014.5 1013.5
04 13.08 В 3 н/о н/о +30.0 +25.1 75 +43 +43 опасность
перегрева
1014.4 1013.4
05 13.08 В 3 н/о н/о +30.1 +25.0 74 +43 +43 опасность
перегрева
1014.3 1013.3
06 13.08 В 2 н/о н/о +29.5 +25.3 78 +43 +43 опасность
перегрева
1014.3 1013.3
07 13.08 Ю 3 н/о н/о +27.7 +24.4 82 +39 +39 очень
душно
1014.5 1013.5
08 13.08 В 2 н/о н/о +28.3 +25.1 83 +41 +41 опасность
перегрева
1014.7 1013.7
09 13.08 СВ 3 н/о н/о +28.6 +24.6 79 +41 +41 опасность
перегрева
1015.5 1014.5
10 13.08 СВ 2 н/о н/о +28.7 +24.5 78 +41 +41 опасность
перегрева
1016.2 1015.2
11 13.08 СВ 3 н/о н/о +27.5 +24.4 83 +39 +39 очень
душно
1016.7 1015.7
12 13.08 СВ 2 н/о н/о +27.8 +24.7 83 +39 +39 очень
душно
1016.5 1015.5 +31.5
13 13.08 С 1 н/о н/о +27.3 +25.0 87 +39 +39 очень
душно
1016.5 1015.5
14 13.08 СВ 2 н/о н/о +27.3 +24.4 84 +38 +38 очень
душно
1016.0 1015.0
15 13.08 С 2 н/о н/о +26.3 +24.3 89 +37 +37 очень
душно
1015.6 1014.6
17 13.08 С 2 н/о н/о +26.7 +25.3 92 +39 +39 очень
душно
1014.9 1013.9
18 13.08 С 2 н/о н/о +25.9 +24.9 94 +37 +37 очень
душно
1014.7 1013.7
19 13.08 С 2 н/о н/о +27.2 +25.2 89 +39 +39 очень
душно
1014.8 1013.8
21 13.08 С 3 н/о н/о +28.7 +25.3 82 +42 +42 опасность
перегрева
1015.5 1014.5
22 13.08 С 3 н/о н/о +29.4 +25.2 78 +43 +43 опасность
перегрева
1015.7 1014.7
23 13.08 СЗ 3 н/о н/о +28.8 +24.6 78 +41 +41 опасность
перегрева
1015.9 1014.9
00 14.08 С 4 н/о н/о +30.0 +24.4 72 +42 +42 опасность
перегрева
1015.8 1014.8 +25.6
01 14.08 СВ 6 н/о н/о +30.4 +24.1 69 +42 +42 опасность
перегрева
1015.6 1014.6
02 14.08 З 2 н/о н/о +27.5 +25.7 90 +41 +41 опасность
перегрева
1015.2 1014.2
03 14.08 В 2 н/о н/о +28.7 +25.3 82 +42 +42 опасность
перегрева
1014.7 1013.7
04 14.08 СВ 5 н/о н/о +30.2 +25.3 75 +44 +44 опасность
перегрева
1014.1 1013.1
05 14.08 СВ 5 н/о н/о +29.6 +25.6 79 +44 +44 опасность
перегрева
1013.7 1012.7
06 14.08 СВ 5 н/о н/о +30.0 +25.7 78 +45 +45 опасность
перегрева
1013.4 1012.4 3
07 14.08 СВ 5 н/о н/о +30.0 +25.1 75 +43 +43 опасность
перегрева
1013.6 1012.6
08 14.08 СВ 5 н/о н/о +29.3 +25.1 78 +42 +42 опасность
перегрева
1014.0 1013.0
09 14.08 СВ 5 н/о н/о +29.0 +25.2 80 +42 +42 опасность
перегрева
1014.6 1013.6
10 14.08 СВ 4 н/о н/о +29.0 +24.6 77 +41 +41 опасность
перегрева
1015.2 1014.2
11 14.08 СВ 4 н/о н/о +28.9 +24.9 79 +41 +41 опасность
перегрева
1015.4 1014.4
12 14.08 С 4 н/о н/о +28.6 +24.8 80 +41 +41 опасность
перегрева
1015.4 1014.4 +30.7 3
13 14.08 С 3 н/о н/о +28.3 +24.7 81 +40 +40 очень
душно
1015.1 1014.1
14 14.08 С 3 н/о н/о +28.3 +24.7 81 +40 +40 очень
душно
1014.2 1013.2
15 14.08 С 3 н/о н/о +28.1 +24.7 82 +40 +40 очень
душно
1013.5 1012.5
16 14.08 С 2 н/о н/о +28.0 +24.6 82 +40 +40 очень
душно
1013.1 1012.1
17 14.08 С 2 н/о н/о +28.1 +24.5 81 +40 +40 очень
душно
1012.9 1011.9
18 14.08 С 3 н/о н/о +28.0 +24.8 83 +40 +40 очень
душно
1013.0 1012.0
20 14.08 СЗ 4 н/о н/о +28.1 +24.7 82 +40 +40 очень
душно
1013.4 1012.4
21 14.08 СЗ 4 н/о н/о +29.3 +25.1 78 +42 +42 опасность
перегрева
1014.0 1013.0
23 14.08 СЗ 3 н/о н/о +29.8 +25.1 76 +43 +43 опасность
перегрева
1014.1 1013.1
00 15.08 СЗ 4 н/о н/о +30.6 +25.0 72 +44 +44 опасность
перегрева
1013.9 1012.9 +27.8
01 15.08 СЗ 4 н/о н/о +30.2 +25.1 74 +44 +44 опасность
перегрева
1013.7 1012.7
03 15.08 СЗ 5 н/о н/о +29.3 +24.4 75 +41 +41 опасность
перегрева
1013.1 1012.1
04 15.08 СЗ 5 н/о н/о +30.4 +25.0 73 +44 +44 опасность
перегрева
1012.4 1011.4
06 15.08 СЗ 6 н/о н/о +27.6 +23.8 80 +38 +38 очень
душно
1012.0 1011.0 0.5
08 15.08 СЗ 5 н/о н/о +28.9 +25.5 82 +43 +43 опасность
перегрева
1012.0 1011.0
09 15.08 СЗ 5 н/о н/о +28.9 +24.7 78 +41 +41 опасность
перегрева
1012.5 1011.5
10 15.08 С 5 н/о н/о +28.8 +25.0 80 +42 +42 опасность
перегрева
1012.7 1011.7
11 15.08 СЗ 4 н/о н/о +28.7 +24.9 80 +41 +41 опасность
перегрева
1012.8 1011.8
12 15.08 СЗ 4 н/о н/о +28.7 +25.5 83 +42 +42 опасность
перегрева
1012.6 1011.6 +31.4 0.5
13 15.08 СЗ 4 н/о н/о +28.6 +25.4 83 +42 +42 опасность
перегрева
1012.4 1011.4
14 15.08 СЗ 5 н/о н/о +28.5 +25.3 83 +42 +42 опасность
перегрева
1011.5 1010.5
15 15.08 СЗ 4 н/о н/о +28.4 +25.6 85 +42 +42 опасность
перегрева
1011.1 1010.1
16 15.08 СЗ 5 н/о н/о +28.5 +25.9 86 +43 +43 опасность
перегрева
1010.6 1009.6
17 15.08 СЗ 5 н/о н/о +28.5 +25.1 82 +41 +41 опасность
перегрева
1010.5 1009.5
18 15.08 З 5 н/о н/о +26.9 +25.1 90 +39 +39 очень
душно
1010.0 1009.0 0.0
19 15.08 З 4 н/о н/о +28.0 +25.6 87 +41 +41 опасность
перегрева
1009.9 1008.9
20 15.08 З 5 н/о н/о +28.2 +25.6 86 +42 +42 опасность
перегрева
1010.3 1009.3
21 15.08 СЗ 6 н/о н/о +28.7 +26.1 86 +43 +43 опасность
перегрева
1010.6 1009.6
22 15.08 СЗ 7 н/о н/о +28.8 +25.6 83 +43 +43 опасность
перегрева
1010.6 1009.6
23 15.08 СЗ 7 н/о н/о +29.1 +25.5 81 +43 +43 опасность
перегрева
1010.6 1009.6
00 16.08 СЗ 7 н/о н/о +28.9 +25.3 81 +42 +42 опасность
перегрева
1010.5 1009.5 +26.8 0.0
01 16.08 СЗ 8 н/о н/о +28.6 +25.6 84 +42 +42 опасность
перегрева
1010.3 1009.3
02 16.08 СЗ 7 н/о н/о +28.0 +25.8 88 +42 +42 опасность
перегрева
1010.1 1009.1
03 16.08 СЗ 6 н/о н/о +26.4 +25.2 93 +38 +38 очень
душно
1009.6 1008.6
04 16.08 СЗ 6 н/о н/о +26.9 +25.9 94 +40 +40 очень
душно
1009.5 1008.5
05 16.08 СЗ 3 н/о н/о +26.0 +25.7 98 +38 +38 очень
душно
1009.1 1008.1
06 16.08 СЗ 9 н/о н/о +25.4 +24.9 97 +36 +36 очень
душно
1009.4 1008.4 27
07 16.08 СЗ 8 н/о н/о +25.8 +24.9 95 +37 +37 очень
душно
1009.0 1008.0
08 16.08 З 6 н/о н/о +25.7 +25.2 97 +37 +37 очень
душно
1008.7 1007.7
09 16.08 СЗ 7 н/о н/о +25.5 +25.0 97 +36 +36 очень
душно
1009.0 1008.0
11 16.08 С 6 н/о н/о +27.8 +26.0 90 +42 +42 опасность
перегрева
1009.5 1008.5
12 16.08 С 6 н/о н/о +27.7 +26.7 94 +43 +43 опасность
перегрева
1009.2 1008.2 +29.1 61
13 16.08 С 6 н/о н/о +28.2 +26.4 90 +43 +43 опасность
перегрева
1008.7 1007.7
15 16.08 С 6 н/о н/о +28.2 +26.0 88 +42 +42 опасность
перегрева
1007.6 1006.6
16 16.08 С 6 н/о н/о +28.2 +26.2 89 +43 +43 опасность
перегрева
1007.2 1006.2
17 16.08 С 5 н/о н/о +27.9 +26.3 91 +42 +42 опасность
перегрева
1007.1 1006.1
18 16.08 С 6 н/о н/о +28.0 +26.2 90 +42 +42 опасность
перегрева
1006.8 1005.8 0.0
19 16.08 С 6 н/о н/о +28.1 +26.3 90 +43 +43 опасность
перегрева
1007.4 1006.4
20 16.08 СВ 6 н/о н/о +28.0 +26.0 89 +42 +42 опасность
перегрева
1007.5 1006.5
21 16.08 СВ 6 н/о н/о +28.7 +25.9 85 +43 +43 опасность
перегрева
1007.6 1006.6
22 16.08 СВ 5 н/о н/о +28.7 +26.5 88 +44 +44 опасность
перегрева
1008.2 1007.2
23 16.08 СВ 6 н/о н/о +30.0 +26.0 79 +45 +45 опасность
перегрева
1008.1 1007.1
00 17.08 СВ 6 н/о н/о +30.5 +25.3 74 +44 +44 опасность
перегрева
1008.2 1007.2 +27.3 0.0
01 17.08 СВ 5 н/о н/о +30.6 +26.1 77 +46 +46 опасность
перегрева
1007.9 1006.9
02 17.08 СВ 6 н/о н/о +31.2 +25.6 72 +46 +46 опасность
перегрева
1007.6 1006.6
03 17.08 СВ 7 н/о н/о +31.4 +25.5 71 +46 +46 опасность
перегрева
1006.9 1005.9
04 17.08 СВ 7 н/о н/о +31.2 +25.6 72 +46 +46 опасность
перегрева
1006.5 1005.5
05 17.08 СВ 7 н/о н/о +31.0 +25.6 73 +46 +46 опасность
перегрева
1006.4 1005.4
06 17.08 СВ 7 н/о н/о +30.2 +25.5 76 +44 +44 опасность
перегрева
1006.6 1005.6 0.0
07 17.08 СВ 8 н/о н/о +30.1 +25.6 77 +44 +44 опасность
перегрева
1006.6 1005.6
08 17.08 СВ 7 н/о н/о +29.1 +25.1 79 +42 +42 опасность
перегрева
1006.9 1005.9
09 17.08 СВ 7 н/о н/о +28.9 +25.5 82 +43 +43 опасность
перегрева
1007.2 1006.2
10 17.08 СВ 7 н/о н/о +28.8 +25.0 80 +42 +42 опасность
перегрева
1007.5 1006.5

 

Местоположение метеостанции Минамитори (Япония): широта 24.28 долгота 153.98 высота над уровнем моря 8 м.

В архиве по умолчанию представлена погода на Минамитори за последнюю неделю. Архивные данные за месяц целиком и за предыдущие месяцы, начиная с января 2011 года, Вы можете получить, выбрав интересующий диапазон дат из раскрывающегося списка и нажав кнопку "Ввод!".


*Определитесь, кто Вы:
робот инопланетянин человек

Внимание! Время в таблицах - всемирное. Для получения местного времени необходимо прибавить поправку, которая равна 9 ч.

Смотрите также архив погоды в соседних городах и на ближайших метеорологических станциях:

Погода на Титидзиме (Япония) (1221 км)
Погода на Хатидзёдзиме (Япония) (1696 км)
Погода на Миякедзиме (Япония) (1778 км)
Погода в Кацууре (Япония) (1787 км)
Погода в Тёси (Япония) (1791 км)
Погода в Татеяме (Япония) (1807 км)
Погода на Осиме (Япония) (1827 км)
Погода в Тибе (Япония) (1833 км)
Погода в Иокогаме (Япония) (1853 км)
Погода в Иродзаки (Япония) (1858 км)

Пояснения к столбцам:

Ветер - указаны скорость ветра в м/с - средняя за 10 мин, порывы в срок и между сроками (в фигурных скобках) и направление, откуда дует ветер: С - северный, СВ - северо-восточный, В - восточный, ЮВ - юго-восточный, Ю - южный, ЮЗ - юго-западный, З - западный, СЗ - северо-западный.
Видимость - горизонтальная дальность видимости в метрах или километрах. При видимости от 1 до 10 км при отсутствии осадков обычно наблюдается дымка, при ухудшении видимости до 1 км и менее - туман. В сухую погоду видимость может ухудшаться дымом, пылью или мглою.
Явления - указаны атмосферные явления, наблюдавшиеся в срок или в последний час перед сроком; фигурными скобками обозначены явления, наблюдавшиеся между сроками (за 1-3 часа до срока); квадратными скобками обозначены град или гололедные отложения с указанием их диаметра в мм.
Облачность - указаны через наклонную черту общая и нижняя облачность в баллах и высота нижней границы облаков в метрах; квадратными скобками обозначены формы облаков: Ci - перистые, Cs - перисто-слоистые, Cc - перисто-кучевые, Ac - высококучевые, As - высокослоистые, Sc - слоисто-кучевые, Ns - слоисто-дождевые, Cu - кучевые, Cb - кучево-дождевые. Подробнее классификацию облаков см. в Атласе облаков (PDF).
T - Температура воздуха - температура, измеренная на высоте 2 м над землей.
Td - Температура точки росы - температура, при понижении до которой содержащийся в воздухе водяной пар достигнет насыщения.
f - Относительная влажность воздуха - влажноcть воздуха, измеренная на высоте 2 м над землей.
Te - Эффективная температура - температура, которую ощущает одетый по сезону человек в тени. Характеристика душности погоды. При расчете учитывается влияние влажности воздуха и скорости ветра на теплоощущения человека.
Tes - Эффективная температура на солнце - температура, которую ощущает человек, с поправкой на солнечный нагрев. Характеристика знойности погоды. Зависит от высоты солнца над горизонтом, облачности и скорости ветра. Ночью, в пасмурную погоду, а также при ветре 12 м/с и более поправка равна нулю.
P - Атмосферное давление - приведенное к уровню моря атмосферное давление.
Po - Атмосферное давление - измеренное на уровне метеостанции атмосферное давление.
Tmin - Минимальная температура - минимум температуры воздуха на высоте 2 м над землей.
Tmax - Максимальная температура - максимум температуры воздуха на высоте 2 м над землей.
R - Количество осадков - Количество выпавших осадков за период времени, мм. При наведении курсора мыши на число - период времени, за который выпало указанное количество осадков.
R24 - Количество осадков - Количество выпавших осадков за 24 часа, мм.
S - Снежный покров - Высота снежного покрова, см. При наведении курсора мыши на число - состояние снежного покрова и степень покрытия местности в баллах.